,,Stat1,,Stat2,,Stat3,,Stat4,,Wind1,,Wind1,
time,status,PR1M_SUM,status,RH1M_AVG,status,SR1M_AVG,status,TA1M_AVG,status,W1dAve1m,status,W1sAve1m,
1999-10-08, 00:01:00,VALID,0,VALID,98.838,VALID,0,VALID,20.1249,VALID,105,VALID,0,
1999-10-08, 00:02:01,VALID,0,VALID,98.8456,VALID,-0.0169808,VALID,20.14,VALID,109,VALID,0,
1999-10-08, 00:03:01,VALID,0,VALID,98.8406,VALID,0,VALID,20.1699,VALID,113,VALID,0,
1999-10-08, 00:04:00,VALID,0,VALID,98.8304,VALID,0,VALID,20.1896,VALID,113,VALID,0,
1999-10-08, 00:05:00,VALID,0,VALID,98.8011,VALID,0.0339617,VALID,20.2023,VALID,112,VALID,0.231291,
1999-10-08, 00:06:00,VALID,0,VALID,98.7058,VALID,0,VALID,20.1993,VALID,113,VALID,0.280405,
1999-10-08, 00:07:00,VALID,0,VALID,98.6282,VALID,0.0339617,VALID,20.2117,VALID,119,VALID,0.388719,
1999-10-08, 00:08:00,VALID,0,VALID,98.5621,VALID,0,VALID,20.2416,VALID,122,VALID,0.225718,
1999-10-08, 00:09:00,VALID,0,VALID,98.3713,VALID,0,VALID,20.2281,VALID,123,VALID,0.228365,
1999-10-08, 00:10:00,VALID,0,VALID,98.2518,VALID,-0.0169808,VALID,20.2192,VALID,138,VALID,0,
1999-10-08, 00:11:00,VALID,0,VALID,98.1628,VALID,0,VALID,20.1923,VALID,139,VALID,0,
1999-10-08, 00:12:01,VALID,0,VALID,98.1755,VALID,0.0169808,VALID,20.1891,VALID,139,VALID,0,
1999-10-08, 00:13:00,VALID,0,VALID,98.1984,VALID,0.0169808,VALID,20.1858,VALID,136,VALID,0,
1999-10-08, 00:14:01,VALID,0,VALID,98.2137,VALID,0,VALID,20.1958,VALID,131,VALID,0,
1999-10-08, 00:15:00,VALID,0,VALID,98.2543,VALID,0,VALID,20.2252,VALID,130,VALID,0,
1999-10-08, 00:16:00,VALID,0,VALID,98.1819,VALID,0.0169808,VALID,20.2478,VALID,126,VALID,0,
1999-10-08, 00:17:00,VALID,0,VALID,98.0153,VALID,0.0509425,VALID,20.2351,VALID,124,VALID,0,
1999-10-08, 00:18:00,VALID,0,VALID,97.8894,VALID,0.0339617,VALID,20.2214,VALID,124,VALID,0.13418,
1999-10-08, 00:19:00,VALID,0,VALID,97.8296,VALID,0.0169808,VALID,20.2082,VALID,123,VALID,0,
1999-10-08, 00:20:00,VALID,0,VALID,97.8004,VALID,0.0509425,VALID,20.2184,VALID,126,VALID,0.00616776,
1999-10-08, 00:21:00,VALID,0,VALID,97.78,VALID,0.0169808,VALID,20.2182,VALID,160,VALID,0.0583882,
1999-10-08, 00:22:00,VALID,0,VALID,97.8144,VALID,0.0339617,VALID,20.2144,VALID,215,VALID,0.360431,
1999-10-08, 00:23:01,VALID,0,VALID,97.7393,VALID,0.0339617,VALID,20.2182,VALID,220,VALID,0.542652,
1999-10-08, 00:24:01,VALID,0,VALID,97.7292,VALID,0.0169808,VALID,20.1983,VALID,218,VALID,0.417969,
1999-10-08, 00:25:01,VALID,0,VALID,97.8729,VALID,0.0169808,VALID,20.1789,VALID,231,VALID,0.573396,
1999-10-08, 00:26:00,VALID,0,VALID,97.9746,VALID,0.0169808,VALID,20.1433,VALID,221,VALID,0.722266,
1999-10-08, 00:27:00,VALID,0,VALID,98.117,VALID,0.0509425,VALID,20.1149,VALID,243,VALID,0.692634,
1999-10-08, 00:28:00,VALID,0,VALID,98.2556,VALID,0.0339617,VALID,20.0853,VALID,230,VALID,0.55599,
1999-10-08, 00:29:00,VALID,0,VALID,98.3675,VALID,0,VALID,20.0726,VALID,200,VALID,0.339063,
1999-10-08, 00:30:00,VALID,0,VALID,98.4718,VALID,0.0169808,VALID,20.0667,VALID,197,VALID,0.269141,
1999-10-08, 00:31:00,VALID,0,VALID,98.4629,VALID,0.0169808,VALID,20.0435,VALID,197,VALID,0.305099,
1999-10-08, 00:32:00,VALID,0,VALID,98.5099,VALID,0,VALID,20.05,VALID,217,VALID,0.316512,
1999-10-08, 00:33:00,VALID,0,VALID,98.4718,VALID,0,VALID,20.0567,VALID,205,VALID,0.293997,
1999-10-08, 00:34:00,VALID,0,VALID,98.4769,VALID,0,VALID,20.0761,VALID,207,VALID,0.332031,
1999-10-08, 00:35:01,VALID,0,VALID,98.4578,VALID,0,VALID,20.0793,VALID,196,VALID,0.0302484,
1999-10-08, 00:36:01,VALID,0,VALID,98.4069,VALID,0,VALID,20.0858,VALID,197,VALID,0,
1999-10-08, 00:37:00,VALID,0,VALID,98.3955,VALID,0,VALID,20.1015,VALID,197,VALID,0,
1999-10-08, 00:38:00,VALID,0,VALID,98.351,VALID,0.0339617,VALID,20.1117,VALID,197,VALID,0,
1999-10-08, 00:39:00,VALID,0,VALID,98.2785,VALID,0.0169808,VALID,20.1184,VALID,197,VALID,0,
1999-10-08, 00:40:00,VALID,0,VALID,98.2429,VALID,0,VALID,20.1211,VALID,175,VALID,0.0977564,
1999-10-08, 00:41:00,VALID,0,VALID,98.2467,VALID,0.0339617,VALID,20.1314,VALID,143,VALID,0.266006,
1999-10-08, 00:42:00,VALID,0,VALID,98.2086,VALID,0,VALID,20.1634,VALID,142,VALID,0.0489309,
1999-10-08, 00:43:00,VALID,0,VALID,98.103,VALID,0,VALID,20.1863,VALID,141,VALID,0.0995593,
1999-10-08, 00:44:00,VALID,0,VALID,98.0115,VALID,0,VALID,20.2217,VALID,141,VALID,0,
1999-10-08, 00:45:00,VALID,0,VALID,97.9288,VALID,0.0509425,VALID,20.257,VALID,141,VALID,0,
1999-10-08, 00:46:00,VALID,0,VALID,97.7673,VALID,0,VALID,20.2864,VALID,141,VALID,0,
1999-10-08, 00:47:00,VALID,0,VALID,97.6147,VALID,0.0169808,VALID,20.2866,VALID,141,VALID,0,
1999-10-08, 00:48:00,VALID,0,VALID,97.5766,VALID,0.0169808,VALID,20.3095,VALID,141,VALID,0,
1999-10-08, 00:49:00,VALID,0,VALID,97.5397,VALID,0.0169808,VALID,20.3314,VALID,141,VALID,0,
1999-10-08, 00:50:00,VALID,0,VALID,97.4125,VALID,0.0339617,VALID,20.3538,VALID,158,VALID,0,
1999-10-08, 00:51:00,VALID,0,VALID,97.2777,VALID,-0.0679233,VALID,20.3782,VALID,215,VALID,0,
1999-10-08, 00:52:00,VALID,0,VALID,97.2676,VALID,-0.101885,VALID,20.3884,VALID,215,VALID,0.0289885,
1999-10-08, 00:53:00,VALID,0,VALID,97.3108,VALID,-0.101885,VALID,20.3949,VALID,219,VALID,0.19082,
1999-10-08, 00:54:00,VALID,0,VALID,97.2701,VALID,-0.0679233,VALID,20.3745,VALID,231,VALID,0.335268,
1999-10-08, 00:55:00,VALID,0,VALID,97.2218,VALID,-0.101885,VALID,20.3688,VALID,232,VALID,0.0505642,
1999-10-08, 00:56:01,VALID,0,VALID,97.2358,VALID,-0.0849042,VALID,20.3588,VALID,232,VALID,0.0455078,
1999-10-08, 00:57:00,VALID,0,VALID,97.293,VALID,-0.0849042,VALID,20.3556,VALID,234,VALID,0.0128906,
1999-10-08, 00:58:00,VALID,0,VALID,97.115,VALID,-0.101885,VALID,20.3165,VALID,244,VALID,0,
1999-10-08, 00:59:00,VALID,0,VALID,97.1849,VALID,-0.0679233,VALID,20.3103,VALID,239,VALID,0,
1999-10-08, 01:00:00,VALID,0,VALID,97.2332,VALID,-0.101885,VALID,20.33,VALID,199,VALID,0,
1999-10-08, 01:01:00,VALID,0,VALID,97.1989,VALID,-0.0849042,VALID,20.3267,VALID,222,VALID,0,
1999-10-08, 01:02:00,VALID,0,VALID,97.2091,VALID,-0.0849042,VALID,20.3265,VALID,230,VALID,0,
1999-10-08, 01:03:00,VALID,0,VALID,97.1239,VALID,-0.0849042,VALID,20.3162,VALID,230,VALID,0,
1999-10-08, 01:04:00,VALID,0,VALID,97.148,VALID,-0.0679233,VALID,20.3197,VALID,233,VALID,0,
1999-10-08, 01:05:00,VALID,0,VALID,97.1633,VALID,-0.0849042,VALID,20.3133,VALID,239,VALID,0,
1999-10-08, 01:06:00,VALID,0,VALID,97.1086,VALID,-0.0169808,VALID,20.3028,VALID,262,VALID,0.234976,
1999-10-08, 01:07:00,VALID,0,VALID,97.0908,VALID,0,VALID,20.2704,VALID,261,VALID,0.359776,
1999-10-08, 01:08:00,VALID,0,VALID,97.1506,VALID,0,VALID,20.247,VALID,312,VALID,0.137386,
1999-10-08, 01:09:00,VALID,0,VALID,97.1811,VALID,-0.0169808,VALID,20.2279,VALID,277,VALID,0.273643,
1999-10-08, 01:10:00,VALID,0,VALID,97.1824,VALID,-0.0339617,VALID,20.2082,VALID,262,VALID,0.0883413,
1999-10-08, 01:11:00,VALID,0,VALID,97.2409,VALID,-0.0339617,VALID,20.2055,VALID,253,VALID,0,
1999-10-08, 01:12:00,VALID,0,VALID,97.2154,VALID,-0.0169808,VALID,20.1721,VALID,263,VALID,0.0767578,
1999-10-08, 01:13:00,VALID,0,VALID,97.2167,VALID,-0.0169808,VALID,20.1567,VALID,300,VALID,0.205512,
1999-10-08, 01:14:00,VALID,0,VALID,97.2116,VALID,0,VALID,20.1274,VALID,306,VALID,0.215049,
1999-10-08, 01:15:00,VALID,0,VALID,97.2371,VALID,-0.0339617,VALID,20.1055,VALID,312,VALID,0.148643,
1999-10-08, 01:16:00,VALID,0,VALID,97.3197,VALID,-0.0509425,VALID,20.0856,VALID,293,VALID,0.103463,
1999-10-08, 01:17:00,VALID,0,VALID,97.4164,VALID,0,VALID,20.0565,VALID,273,VALID,0.0546875,
1999-10-08, 01:18:01,VALID,0,VALID,97.5702,VALID,0,VALID,20.0537,VALID,273,VALID,0,
1999-10-08, 01:19:00,VALID,0,VALID,97.677,VALID,-0.0339617,VALID,20.0368,VALID,273,VALID,0,
1999-10-08, 01:20:00,VALID,0,VALID,97.7508,VALID,-0.0169808,VALID,20.0438,VALID,273,VALID,0,
1999-10-08, 01:21:00,VALID,0,VALID,97.8156,VALID,-0.0169808,VALID,20.0338,VALID,273,VALID,0,
1999-10-08, 01:22:00,VALID,0,VALID,97.8487,VALID,-0.0169808,VALID,20.037,VALID,273,VALID,0.00217014,
1999-10-08, 01:23:00,VALID,0,VALID,97.9008,VALID,0,VALID,20.0637,VALID,273,VALID,0,
1999-10-08, 01:24:00,VALID,0,VALID,97.9415,VALID,0,VALID,20.0694,VALID,273,VALID,0,
1999-10-08, 01:25:00,VALID,0,VALID,97.8627,VALID,-0.0339617,VALID,20.0662,VALID,273,VALID,0,
1999-10-08, 01:26:00,VALID,0,VALID,97.8652,VALID,-0.0169808,VALID,20.0532,VALID,273,VALID,0,
1999-10-08, 01:27:00,VALID,0,VALID,97.8487,VALID,0,VALID,20.0604,VALID,238,VALID,0,
1999-10-08, 01:28:00,VALID,0,VALID,97.8131,VALID,-0.0169808,VALID,20.0667,VALID,227,VALID,0,
1999-10-08, 01:29:01,VALID,0,VALID,97.7368,VALID,-0.0339617,VALID,20.0831,VALID,225,VALID,0,
1999-10-08, 01:30:01,VALID,0,VALID,97.7215,VALID,-0.0339617,VALID,20.0796,VALID,214,VALID,0,
1999-10-08, 01:31:00,VALID,0,VALID,97.6821,VALID,-0.0169808,VALID,20.0799,VALID,212,VALID,0,
1999-10-08, 01:32:00,VALID,0,VALID,97.6923,VALID,-0.0339617,VALID,20.0896,VALID,208,VALID,0.0125,
1999-10-08, 01:33:00,VALID,0,VALID,97.6898,VALID,-0.0169808,VALID,20.0828,VALID,207,VALID,0.0889423,
1999-10-08, 01:34:00,VALID,0,VALID,97.6796,VALID,-0.0339617,VALID,20.0925,VALID,207,VALID,0,
1999-10-08, 01:35:00,VALID,0,VALID,97.6096,VALID,-0.0849042,VALID,20.0896,VALID,207,VALID,0,
1999-10-08, 01:36:00,VALID,0,VALID,97.5461,VALID,0,VALID,20.0696,VALID,207,VALID,0,
1999-10-08, 01:37:00,VALID,0,VALID,97.5397,VALID,-0.0339617,VALID,20.0602,VALID,207,VALID,0,
1999-10-08, 01:38:00,VALID,0,VALID,97.5524,VALID,-0.0509425,VALID,20.0378,VALID,207,VALID,0,
1999-10-08, 01:39:00,VALID,0,VALID,97.6084,VALID,0,VALID,20.0149,VALID,207,VALID,0,
1999-10-08, 01:40:00,VALID,0,VALID,97.7266,VALID,0,VALID,20.0052,VALID,207,VALID,0,
1999-10-08, 01:41:00,VALID,0,VALID,97.8131,VALID,-0.0509425,VALID,20.0022,VALID,207,VALID,0,
1999-10-08, 01:42:00,VALID,0,VALID,97.8538,VALID,-0.0339617,VALID,19.9724,VALID,207,VALID,0,
1999-10-08, 01:43:00,VALID,0,VALID,97.9784,VALID,0,VALID,19.9885,VALID,207,VALID,0,
1999-10-08, 01:44:00,VALID,0,VALID,98.0433,VALID,0,VALID,19.9918,VALID,207,VALID,0,
1999-10-08, 01:45:00,VALID,0,VALID,98.0522,VALID,-0.0169808,VALID,20.0052,VALID,198,VALID,0.00719572,
1999-10-08, 01:46:00,VALID,0,VALID,98.0305,VALID,-0.0339617,VALID,20.0084,VALID,108,VALID,0.366776,
1999-10-08, 01:47:00,VALID,0,VALID,98.0191,VALID,0,VALID,20.0152,VALID,88,VALID,0.483594,
1999-10-08, 01:48:00,VALID,0,VALID,97.9886,VALID,-0.0169808,VALID,20.005,VALID,98,VALID,0.646875,
1999-10-08, 01:49:00,VALID,0,VALID,98,VALID,0,VALID,20.0181,VALID,101,VALID,0.803385,
1999-10-08, 01:50:00,VALID,0,VALID,97.9606,VALID,0,VALID,20.0179,VALID,89,VALID,0.417188,
1999-10-08, 01:51:00,VALID,0,VALID,97.9148,VALID,-0.0679233,VALID,20.0224,VALID,88,VALID,0.598633,
1999-10-08, 01:52:01,VALID,0,VALID,97.7241,VALID,-0.101885,VALID,19.9833,VALID,70,VALID,0.752056,
1999-10-08, 01:53:00,VALID,0,VALID,97.5295,VALID,-0.101885,VALID,19.9345,VALID,62,VALID,0.767948,
1999-10-08, 01:54:00,VALID,0,VALID,97.602,VALID,-0.118866,VALID,19.9191,VALID,60,VALID,0.761308,
1999-10-08, 01:55:00,VALID,0,VALID,97.7177,VALID,-0.0849042,VALID,19.8927,VALID,82,VALID,0.658512,
1999-10-08, 01:56:00,VALID,0,VALID,97.9161,VALID,-0.101885,VALID,19.9161,VALID,92,VALID,0.401843,
1999-10-08, 01:57:00,VALID,0,VALID,97.9733,VALID,-0.101885,VALID,19.9099,VALID,101,VALID,0.653846,
1999-10-08, 01:58:00,VALID,0,VALID,98.0382,VALID,-0.101885,VALID,19.9258,VALID,108,VALID,0.584882,
1999-10-08, 01:59:00,VALID,0,VALID,97.9136,VALID,-0.101885,VALID,19.9002,VALID,100,VALID,0.792773,
1999-10-08, 02:00:00,VALID,0,VALID,97.8932,VALID,-0.118866,VALID,19.8669,VALID,112,VALID,0.692308,
1999-10-08, 02:01:00,VALID,0,VALID,98.0089,VALID,-0.118866,VALID,19.8771,VALID,118,VALID,0.593149,
1999-10-08, 02:02:00,VALID,0,VALID,97.9568,VALID,-0.152827,VALID,19.884,VALID,104,VALID,0.728087,
1999-10-08, 02:03:01,VALID,0,VALID,97.9593,VALID,-0.118866,VALID,19.8967,VALID,117,VALID,0.53824,
1999-10-08, 02:04:00,VALID,0,VALID,97.9085,VALID,-0.118866,VALID,19.9127,VALID,132,VALID,0.584936,
1999-10-08, 02:05:00,VALID,0,VALID,97.9237,VALID,-0.101885,VALID,19.9226,VALID,139,VALID,0.768709,
1999-10-08, 02:06:00,VALID,0,VALID,97.9377,VALID,-0.0339617,VALID,19.938,VALID,138,VALID,0.663281,
1999-10-08, 02:07:00,VALID,0,VALID,97.8958,VALID,0.0169808,VALID,19.9311,VALID,136,VALID,0.612413,
1999-10-08, 02:08:00,VALID,0,VALID,97.869,VALID,0,VALID,19.9211,VALID,123,VALID,0.697574,
1999-10-08, 02:09:00,VALID,0,VALID,97.9593,VALID,0.0169808,VALID,19.9251,VALID,109,VALID,0.469572,
1999-10-08, 02:10:00,VALID,0,VALID,98.0344,VALID,0.0169808,VALID,19.9278,VALID,117,VALID,0.477407,
1999-10-08, 02:11:00,VALID,0,VALID,98.0712,VALID,0,VALID,19.9375,VALID,126,VALID,0.375,
1999-10-08, 02:12:00,VALID,0,VALID,98.1005,VALID,0,VALID,19.9437,VALID,122,VALID,0.503495,
1999-10-08, 02:13:00,VALID,0,VALID,98.0165,VALID,-0.0169808,VALID,19.9338,VALID,114,VALID,0.767064,
1999-10-08, 02:14:00,VALID,0,VALID,98.0255,VALID,0,VALID,19.9567,VALID,111,VALID,0.528711,
1999-10-08, 02:15:00,VALID,0,VALID,97.9441,VALID,0,VALID,19.9505,VALID,106,VALID,0.910714,
1999-10-08, 02:16:00,VALID,0,VALID,97.8296,VALID,0,VALID,19.9306,VALID,110,VALID,0.798394,
1999-10-08, 02:17:00,VALID,0,VALID,97.8741,VALID,-0.0169808,VALID,19.9375,VALID,96,VALID,0.671289,
1999-10-08, 02:18:00,VALID,0,VALID,97.8614,VALID,-0.0339617,VALID,19.9313,VALID,98,VALID,0.599219,
1999-10-08, 02:19:00,VALID,0,VALID,97.9237,VALID,0,VALID,19.9408,VALID,97,VALID,0.432977,
1999-10-08, 02:20:00,VALID,0,VALID,97.9555,VALID,0,VALID,19.947,VALID,107,VALID,0.481419,
1999-10-08, 02:21:00,VALID,0,VALID,97.8856,VALID,-0.0169808,VALID,19.9475,VALID,132,VALID,0.613898,
1999-10-08, 02:22:00,VALID,0,VALID,97.8296,VALID,0,VALID,19.9378,VALID,151,VALID,0.496094,
1999-10-08, 02:23:00,VALID,0,VALID,97.8627,VALID,0.0169808,VALID,19.9082,VALID,143,VALID,0.417869,
1999-10-08, 02:24:01,VALID,0,VALID,97.9606,VALID,-0.0169808,VALID,19.8985,VALID,146,VALID,0.264623,
1999-10-08, 02:25:00,VALID,0,VALID,97.9695,VALID,-0.0339617,VALID,19.8758,VALID,152,VALID,0.300253,
1999-10-08, 02:26:00,VALID,0,VALID,98.0661,VALID,0,VALID,19.8634,VALID,150,VALID,0.210742,
1999-10-08, 02:27:00,VALID,0,VALID,98.103,VALID,0,VALID,19.8527,VALID,170,VALID,0.412059,
1999-10-08, 02:28:00,VALID,0,VALID,98.0979,VALID,0,VALID,19.8534,VALID,172,VALID,0.345553,
1999-10-08, 02:29:00,VALID,0,VALID,98.075,VALID,0,VALID,19.8338,VALID,171,VALID,0.131288,
1999-10-08, 02:30:00,VALID,0,VALID,98.1857,VALID,0,VALID,19.8373,VALID,111,VALID,0.436266,
1999-10-08, 02:31:00,VALID,0,VALID,98.2556,VALID,0,VALID,19.8564,VALID,98,VALID,0.720954,
1999-10-08, 02:32:00,VALID,0,VALID,98.276,VALID,0,VALID,19.8828,VALID,97,VALID,0.652344,
1999-10-08, 02:33:00,VALID,0,VALID,98.281,VALID,0,VALID,19.9022,VALID,92,VALID,0.527734,
1999-10-08, 02:34:00,VALID,0,VALID,98.2709,VALID,0,VALID,19.9246,VALID,109,VALID,0.453559,
1999-10-08, 02:35:00,VALID,0,VALID,98.0928,VALID,0,VALID,19.9181,VALID,93,VALID,0.732113,
1999-10-08, 02:36:00,VALID,0,VALID,97.8385,VALID,0,VALID,19.8888,VALID,91,VALID,0.924137,
1999-10-08, 02:37:00,VALID,0,VALID,97.747,VALID,0,VALID,19.8893,VALID,100,VALID,0.868454,
1999-10-08, 02:38:00,VALID,0,VALID,97.6491,VALID,0,VALID,19.8559,VALID,108,VALID,0.500845,
1999-10-08, 02:39:00,VALID,0,VALID,97.6758,VALID,0.0169808,VALID,19.8661,VALID,116,VALID,0.364515,
1999-10-08, 02:40:00,VALID,0,VALID,97.7025,VALID,0.0169808,VALID,19.8689,VALID,118,VALID,0.39926,
1999-10-08, 02:41:00,VALID,0,VALID,97.7152,VALID,0,VALID,19.8853,VALID,100,VALID,0.533008,
1999-10-08, 02:42:00,VALID,0,VALID,97.7037,VALID,0.0339617,VALID,19.8985,VALID,96,VALID,0.349107,
1999-10-08, 02:43:00,VALID,0,VALID,97.6046,VALID,0.0169808,VALID,19.9114,VALID,96,VALID,0.106771,
1999-10-08, 02:44:00,VALID,0,VALID,97.5206,VALID,0.0169808,VALID,19.9246,VALID,96,VALID,0,
1999-10-08, 02:45:00,VALID,0,VALID,97.5003,VALID,0.0169808,VALID,19.9373,VALID,96,VALID,0,
1999-10-08, 02:46:01,VALID,0,VALID,97.5028,VALID,0.0169808,VALID,19.9594,VALID,96,VALID,0,
1999-10-08, 02:47:01,VALID,0,VALID,97.4303,VALID,0.0169808,VALID,19.9726,VALID,96,VALID,0,
1999-10-08, 02:48:00,VALID,0,VALID,97.438,VALID,0,VALID,19.9758,VALID,97,VALID,0,
1999-10-08, 02:49:00,VALID,0,VALID,97.3833,VALID,0,VALID,19.9955,VALID,101,VALID,0,
1999-10-08, 02:50:00,VALID,0,VALID,97.3668,VALID,0.0339617,VALID,20.0119,VALID,110,VALID,0,
1999-10-08, 02:51:00,VALID,0,VALID,97.4507,VALID,0,VALID,20.0216,VALID,168,VALID,0.0560897,
1999-10-08, 02:52:00,VALID,0,VALID,97.4698,VALID,0,VALID,20.0154,VALID,295,VALID,0,
1999-10-08, 02:53:00,VALID,0,VALID,97.4316,VALID,0,VALID,19.9726,VALID,339,VALID,0,
1999-10-08, 02:54:00,VALID,0,VALID,97.4596,VALID,0.0169808,VALID,19.9666,VALID,306,VALID,0,
1999-10-08, 02:55:00,VALID,0,VALID,97.541,VALID,0,VALID,19.9699,VALID,306,VALID,0,
1999-10-08, 02:56:00,VALID,0,VALID,97.5893,VALID,0,VALID,19.9763,VALID,300,VALID,0,
1999-10-08, 02:57:01,VALID,0,VALID,97.5486,VALID,0,VALID,19.9699,VALID,300,VALID,0,
1999-10-08, 02:58:01,VALID,0,VALID,97.602,VALID,0,VALID,19.9661,VALID,302,VALID,0,
1999-10-08, 02:59:00,VALID,0,VALID,97.6185,VALID,0,VALID,19.9763,VALID,302,VALID,0,
1999-10-08, 03:00:00,VALID,0,VALID,97.6516,VALID,0.0169808,VALID,19.9925,VALID,302,VALID,0,
1999-10-08, 03:01:00,VALID,0,VALID,97.6134,VALID,0,VALID,19.9985,VALID,300,VALID,0.0138889,
1999-10-08, 03:02:00,VALID,0,VALID,97.4024,VALID,0.0679233,VALID,19.9885,VALID,297,VALID,0,
1999-10-08, 03:03:00,VALID,0,VALID,97.2371,VALID,0,VALID,19.9955,VALID,296,VALID,0,
1999-10-08, 03:04:00,VALID,0,VALID,97.1697,VALID,0,VALID,19.9893,VALID,297,VALID,0.0371622,
1999-10-08, 03:05:00,VALID,0,VALID,97.3095,VALID,0,VALID,19.9855,VALID,355,VALID,0.384924,
1999-10-08, 03:06:00,VALID,0,VALID,97.4189,VALID,0.0849042,VALID,19.998,VALID,104,VALID,0.727179,
1999-10-08, 03:07:00,VALID,0,VALID,97.3134,VALID,0.0849042,VALID,19.991,VALID,110,VALID,0.973479,
1999-10-08, 03:08:00,VALID,0,VALID,97.2816,VALID,0.0679233,VALID,19.9455,VALID,124,VALID,0.924414,
1999-10-08, 03:09:01,VALID,0,VALID,97.321,VALID,0.101885,VALID,19.9261,VALID,140,VALID,0.621205,
1999-10-08, 03:10:00,VALID,0,VALID,97.3591,VALID,0.101885,VALID,19.9064,VALID,154,VALID,0.590061,
1999-10-08, 03:11:00,VALID,0,VALID,97.4545,VALID,0.0849042,VALID,19.8843,VALID,172,VALID,0.752148,
1999-10-08, 03:12:00,VALID,0,VALID,97.6427,VALID,0.101885,VALID,19.8452,VALID,166,VALID,0.870313,
1999-10-08, 03:13:00,VALID,0,VALID,97.8601,VALID,0.0849042,VALID,19.8131,VALID,170,VALID,0.688322,
1999-10-08, 03:14:00,VALID,0,VALID,98.0878,VALID,0.101885,VALID,19.787,VALID,164,VALID,0.55891,
1999-10-08, 03:15:00,VALID,0,VALID,98.3205,VALID,0.118866,VALID,19.777,VALID,167,VALID,0.228002,
1999-10-08, 03:16:00,VALID,0,VALID,98.3662,VALID,0.101885,VALID,19.7671,VALID,174,VALID,0.598479,
1999-10-08, 03:17:00,VALID,0,VALID,98.4298,VALID,0.0849042,VALID,19.7517,VALID,163,VALID,0.343349,
1999-10-08, 03:18:01,VALID,0,VALID,98.5341,VALID,0.0339617,VALID,19.7549,VALID,167,VALID,0.426082,
1999-10-08, 03:19:00,VALID,0,VALID,98.5252,VALID,0.0679233,VALID,19.7415,VALID,154,VALID,0.572635,
1999-10-08, 03:20:01,VALID,0,VALID,98.6663,VALID,0.0849042,VALID,19.7482,VALID,106,VALID,0.706641,
1999-10-08, 03:21:00,VALID,0,VALID,98.6956,VALID,0.0509425,VALID,19.7514,VALID,125,VALID,0.608574,
1999-10-08, 03:22:00,VALID,0,VALID,98.7096,VALID,0.0509425,VALID,19.7552,VALID,117,VALID,0.908654,
1999-10-08, 03:23:00,VALID,0,VALID,98.6841,VALID,0.0509425,VALID,19.7519,VALID,120,VALID,0.85404,
1999-10-08, 03:24:00,VALID,0,VALID,98.7223,VALID,0.0509425,VALID,19.7484,VALID,122,VALID,0.830592,
1999-10-08, 03:25:00,VALID,0,VALID,98.7134,VALID,0.0339617,VALID,19.7358,VALID,135,VALID,0.63141,
1999-10-08, 03:26:00,VALID,0,VALID,98.7325,VALID,0.0679233,VALID,19.7293,VALID,126,VALID,0.398438,
1999-10-08, 03:27:00,VALID,0,VALID,98.7363,VALID,0.0849042,VALID,19.7387,VALID,153,VALID,0.532227,
1999-10-08, 03:28:00,VALID,0,VALID,98.7541,VALID,0.0679233,VALID,19.7258,VALID,126,VALID,0.465929,
1999-10-08, 03:29:00,VALID,0,VALID,98.7592,VALID,0.101885,VALID,19.7392,VALID,146,VALID,0.356702,
1999-10-08, 03:30:00,VALID,0,VALID,98.7388,VALID,0.0679233,VALID,19.7387,VALID,150,VALID,0.233964,
1999-10-08, 03:31:01,VALID,0,VALID,98.6829,VALID,0.0509425,VALID,19.7355,VALID,175,VALID,0.461149,
1999-10-08, 03:32:00,VALID,0,VALID,98.6269,VALID,0.101885,VALID,19.7223,VALID,158,VALID,0.574113,
1999-10-08, 03:33:00,VALID,0,VALID,98.6396,VALID,0.0679233,VALID,19.7193,VALID,160,VALID,0.39926,
1999-10-08, 03:34:00,VALID,0,VALID,98.5506,VALID,0.101885,VALID,19.7191,VALID,178,VALID,0.463199,
1999-10-08, 03:35:00,VALID,0,VALID,98.5761,VALID,0.0509425,VALID,19.7193,VALID,205,VALID,0.247461,
1999-10-08, 03:36:00,VALID,0,VALID,98.5862,VALID,0.0509425,VALID,19.727,VALID,204,VALID,0.363393,
1999-10-08, 03:37:00,VALID,0,VALID,98.5748,VALID,0,VALID,19.7208,VALID,213,VALID,0.472005,
1999-10-08, 03:38:00,VALID,0,VALID,98.5239,VALID,-0.0339617,VALID,19.7084,VALID,200,VALID,0.604883,
1999-10-08, 03:39:00,VALID,0,VALID,98.5557,VALID,-0.0509425,VALID,19.7084,VALID,228,VALID,0.371484,
1999-10-08, 03:40:01,VALID,0,VALID,98.5176,VALID,-0.0339617,VALID,19.6954,VALID,208,VALID,0.689145,
1999-10-08, 03:41:00,VALID,0,VALID,98.4642,VALID,-0.0169808,VALID,19.6857,VALID,180,VALID,0.438767,
1999-10-08, 03:42:01,VALID,0,VALID,98.4667,VALID,-0.0509425,VALID,19.6865,VALID,163,VALID,0.705798,
1999-10-08, 03:43:00,VALID,0,VALID,98.4286,VALID,-0.0679233,VALID,19.6529,VALID,152,VALID,0.914063,
1999-10-08, 03:44:00,VALID,0,VALID,98.4324,VALID,-0.0339617,VALID,19.6599,VALID,147,VALID,0.872596,
1999-10-08, 03:45:00,VALID,0,VALID,98.3929,VALID,-0.0509425,VALID,19.6663,VALID,133,VALID,0.921675,
1999-10-08, 03:46:00,VALID,0,VALID,98.3612,VALID,-0.0169808,VALID,19.6728,VALID,120,VALID,0.889992,
1999-10-08, 03:47:00,VALID,0,VALID,98.3281,VALID,-0.0339617,VALID,19.6534,VALID,128,VALID,0.850586,
1999-10-08, 03:48:00,VALID,0,VALID,98.2543,VALID,-0.101885,VALID,19.6539,VALID,137,VALID,0.688702,
1999-10-08, 03:49:00,VALID,0,VALID,98.2785,VALID,-0.0169808,VALID,19.6469,VALID,135,VALID,0.368389,
1999-10-08, 03:50:00,VALID,0,VALID,98.2493,VALID,-0.0679233,VALID,19.6532,VALID,156,VALID,0.409489,
1999-10-08, 03:51:01,VALID,0,VALID,98.22,VALID,-0.0339617,VALID,19.6629,VALID,160,VALID,0.0931332,
1999-10-08, 03:52:01,VALID,0,VALID,98.192,VALID,-0.0509425,VALID,19.6793,VALID,154,VALID,0.00140224,
1999-10-08, 03:53:00,VALID,0,VALID,98.1793,VALID,-0.0169808,VALID,19.6954,VALID,154,VALID,0,
1999-10-08, 03:54:00,VALID,0,VALID,98.1272,VALID,-0.0679233,VALID,19.7089,VALID,154,VALID,0,
1999-10-08, 03:55:00,VALID,0,VALID,98.0661,VALID,-0.0169808,VALID,19.7119,VALID,154,VALID,0,
1999-10-08, 03:56:00,VALID,0,VALID,98.0051,VALID,-0.0169808,VALID,19.7213,VALID,154,VALID,0,
1999-10-08, 03:57:00,VALID,0,VALID,97.9136,VALID,-0.0339617,VALID,19.7343,VALID,155,VALID,0.0230263,
1999-10-08, 03:58:00,VALID,0,VALID,97.7966,VALID,-0.0169808,VALID,19.731,VALID,186,VALID,0.289907,
1999-10-08, 03:59:00,VALID,0,VALID,97.6986,VALID,-0.0169808,VALID,19.7017,VALID,205,VALID,0.474873,
1999-10-08, 04:00:00,VALID,0,VALID,97.7215,VALID,-0.0509425,VALID,19.692,VALID,206,VALID,0.392475,
1999-10-08, 04:01:00,VALID,0,VALID,97.7711,VALID,-0.0339617,VALID,19.6631,VALID,221,VALID,0.515419,
1999-10-08, 04:02:00,VALID,0,VALID,97.8233,VALID,-0.0509425,VALID,19.6469,VALID,227,VALID,0.746484,
1999-10-08, 04:03:01,VALID,0,VALID,97.8169,VALID,-0.0509425,VALID,19.634,VALID,232,VALID,0.849107,
1999-10-08, 04:04:00,VALID,0,VALID,97.836,VALID,-0.0169808,VALID,19.6014,VALID,238,VALID,0.89605,
1999-10-08, 04:05:00,VALID,0,VALID,97.9148,VALID,-0.0339617,VALID,19.5957,VALID,231,VALID,0.888281,
1999-10-08, 04:06:00,VALID,0,VALID,98.0458,VALID,-0.0169808,VALID,19.5855,VALID,236,VALID,0.729688,
1999-10-08, 04:07:00,VALID,0,VALID,98.1831,VALID,-0.0169808,VALID,19.5892,VALID,233,VALID,0.649465,
1999-10-08, 04:08:00,VALID,0,VALID,98.3332,VALID,0,VALID,19.572,VALID,233,VALID,0.459671,
1999-10-08, 04:09:00,VALID,0,VALID,98.4273,VALID,-0.0339617,VALID,19.5693,VALID,223,VALID,0.397615,
1999-10-08, 04:10:00,VALID,0,VALID,98.5099,VALID,0,VALID,19.5663,VALID,210,VALID,0.349301,